Weather History for Billings, MT

Change the Weather History Date:

Saturday, June 22, 2013

  Actual Average Record
Temperature  
Mean Temperature 60 °F 67 °F  
Max Temperature 69 °F 80 °F 99 °F (1988)
Min Temperature 51 °F 54 °F 43 °F (1967)
Degree Days  
Heating Degree Days 5 2  
Month to date heating degree days 72 83  
Since 1 June heating degree days 72 83  
Since 1 July heating degree days 6419 6769  
Cooling Degree Days 0 4  
Month to date cooling degree days 34 47  
Year to date cooling degree days 61 64  
Since 1 June cooling degree days 34 47  
Growing Degree Days 11 (Base 50)    
Moisture  
Dew Point 48 °F    
Average Humidity 73    
Maximum Humidity 93    
Minimum Humidity 52    
Precipitation  
Precipitation 0.07 in 0.06 in 0.74 in (1940)
Month to date precipitation 0.74 1.64  
Year to date precipitation 7.18 7.50  
Snow  
Snow 0.00 in 0.00 in T in (2006)
Month to date snowfall 0.0 0.0  
Since 1 June snowfall 0.0 0.0  
Since 1 July snowfall 40.4 55.0  
Snow Depth 0.00 in    
Sea Level Pressure  
Sea Level Pressure 29.96 in    
Wind  
Wind Speed 8 mph (NNW)    
Max Wind Speed 31 mph    
Max Gust Speed 39 mph    
Visibility 10 miles    
Events Rain , Thunderstorm    
T = Trace of Precipitation, MM = Missing Value Source: NWS Daily Summary

Daily Weather History Graph

Daily Weather History Graph

Search for Another Location

Airport:

Trip Planner

Search our weather history database for the weather conditions in past years. The results will help you decide how hot, cold, wet, or windy it might be!

Date:

Astronomy

Jun. 22, 2013 Rise Set
Actual Time 5:24 AM MDT 9:08 PM MDT
Civil Twilight 4:46 AM MDT 9:46 PM MDT
Nautical Twilight 3:54 AM MDT 10:37 PM MDT
Astronomical Twilight 2:43 AM MDT 11:49 PM MDT
Moon 8:22 PM MDT (6/22) 4:43 AM MDT (6/22)
Length of Visible Light 17h 00m
Length of Day
15h 43m
Waxing Gibbous, 99% of the Moon is Illuminated
Jun 22
Waxing Gibbous
Jun 23
Full
Jun 29
Last Quarter
Jul 8
New
Jul 15
First Quarter

Hourly Weather History & Observations

Time (MDT) Temp. Dew Point Humidity Pressure Visibility Wind Dir Wind Speed Gust Speed Precip Events Conditions
12:30 AM 53.1 °F 48.9 °F 86% 30.01 in 10.0 mi NE 16.1 mph - 0.00 in   Mostly Cloudy
12:53 AM 53.1 °F 48.0 °F 83% 29.97 in 10.0 mi NNE 13.8 mph - 0.00 in   Mostly Cloudy
1:09 AM 55.0 °F 48.0 °F 77% 30.01 in 10.0 mi NNE 11.5 mph 20.7 mph N/A Thunderstorm Thunderstorm
1:53 AM 53.1 °F 50.0 °F 89% 29.99 in 10.0 mi WSW 8.1 mph - N/A Thunderstorm Thunderstorm
2:53 AM 54.0 °F 51.1 °F 90% 29.98 in 10.0 mi West 9.2 mph - N/A Thunderstorm Thunderstorm
3:44 AM 54.0 °F 50.0 °F 86% 30.00 in 10.0 mi ENE 4.6 mph - N/A   Mostly Cloudy
3:53 AM 53.1 °F 50.0 °F 89% 29.94 in 10.0 mi East 5.8 mph - N/A   Scattered Clouds
4:53 AM 53.1 °F 50.0 °F 89% 29.94 in 10.0 mi WSW 4.6 mph - N/A   Scattered Clouds
5:53 AM 53.1 °F 50.0 °F 89% 29.96 in 10.0 mi West 4.6 mph - N/A   Mostly Cloudy
6:53 AM 53.1 °F 48.9 °F 86% 29.97 in 10.0 mi North 4.6 mph - N/A   Mostly Cloudy
7:53 AM 55.0 °F 48.9 °F 80% 29.96 in 10.0 mi NNW 4.6 mph - 0.00 in   Mostly Cloudy
8:53 AM 54.0 °F 51.1 °F 90% 29.97 in 5.0 mi North 3.5 mph - 0.03 in Rain Rain
9:53 AM 57.0 °F 51.1 °F 81% 29.99 in 10.0 mi NNE 4.6 mph - 0.02 in   Mostly Cloudy
10:53 AM 61.0 °F 52.0 °F 72% 29.96 in 10.0 mi North 5.8 mph - N/A   Scattered Clouds
11:53 AM 64.0 °F 50.0 °F 60% 29.94 in 10.0 mi North 11.5 mph - N/A   Scattered Clouds
12:53 PM 66.9 °F 50.0 °F 54% 29.90 in 10.0 mi ENE 8.1 mph - N/A   Scattered Clouds
1:53 PM 66.0 °F 48.9 °F 54% 29.91 in 10.0 mi North 5.8 mph - N/A   Mostly Cloudy
2:29 PM 59.0 °F 43.0 °F 55% 29.95 in 10.0 mi NW 27.6 mph 38.0 mph N/A   Mostly Cloudy
2:39 PM 59.0 °F 43.0 °F 55% 29.96 in 10.0 mi NW 28.8 mph 36.8 mph N/A   Mostly Cloudy
2:41 PM 59.0 °F 43.0 °F 55% 29.96 in 10.0 mi NW 26.5 mph 36.8 mph N/A Thunderstorm Thunderstorm
2:53 PM 60.1 °F 43.0 °F 53% 29.91 in 10.0 mi NW 27.6 mph 39.1 mph N/A Thunderstorm Thunderstorm
3:12 PM 59.0 °F 44.1 °F 58% 29.94 in 10.0 mi NW 23.0 mph 29.9 mph N/A   Mostly Cloudy
3:53 PM 60.1 °F 43.0 °F 53% 29.91 in 10.0 mi NNW 13.8 mph - N/A   Mostly Cloudy
4:53 PM 59.0 °F 46.9 °F 64% 29.91 in 10.0 mi ENE 13.8 mph - N/A   Mostly Cloudy
5:53 PM 59.0 °F 45.0 °F 60% 29.95 in 10.0 mi Calm Calm - N/A   Scattered Clouds
6:53 PM 57.0 °F 46.9 °F 69% 29.96 in 9.0 mi Variable 4.6 mph - 0.01 in Rain Rain
7:53 PM 57.0 °F 48.9 °F 74% 29.96 in 10.0 mi South 8.1 mph - 0.01 in   Scattered Clouds
8:53 PM 55.9 °F 48.9 °F 77% 29.97 in 10.0 mi WSW 8.1 mph - N/A   Scattered Clouds
9:53 PM 54.0 °F 48.0 °F 80% 29.99 in 10.0 mi NW 5.8 mph - N/A   Scattered Clouds
10:53 PM 55.0 °F 48.0 °F 77% 29.96 in 10.0 mi NNW 5.8 mph - N/A   Mostly Cloudy
11:53 PM 53.1 °F 46.9 °F 80% 29.94 in 10.0 mi SW 13.8 mph - N/A   Partly Cloudy